Location: Catacaguana
(10.4120°N, 66.7591°W)
Time: 00:45:27
(UTC+00:00)

FENGYUN 1C DEB - Visible Passes

Search period start: 03 February 2023 00:00
Search period end: 13 February 2023 00:00
Orbit: 848 x 952 km, 98.8° (Epoch: 02 February)

Date Brightness Start Highest point End Pass type
(mag) Time Alt. Az. Time Alt. Az. Time Alt. Az.
03 Feb ? 09:48:25 10° ENE 09:52:28 19° E 09:56:26 10° SE visible
03 Feb ? 22:44:23 10° S 22:49:59 75° WSW 22:55:45 10° NNW visible
04 Feb ? 09:50:54 10° NE 09:55:09 20° E 09:59:18 10° SSE visible
04 Feb ? 22:47:03 10° S 22:52:39 70° WSW 22:58:24 10° NNW visible
05 Feb ? 09:53:24 10° NE 09:57:49 22° E 10:02:08 10° SSE visible
05 Feb ? 22:49:43 10° S 22:55:19 65° WSW 23:01:03 10° NNW visible
06 Feb ? 09:55:56 10° NE 10:00:29 23° E 10:04:57 10° SSE visible
06 Feb ? 22:52:25 10° S 22:57:58 61° WSW 23:03:42 10° NNW visible
07 Feb ? 09:58:27 10° NE 10:03:10 25° E 10:07:46 10° SSE visible
07 Feb ? 22:55:06 10° S 23:00:38 56° WSW 23:06:20 10° NNW visible
08 Feb ? 10:00:59 10° NE 10:05:50 27° E 10:10:34 10° SSE visible
08 Feb ? 22:57:47 10° S 23:03:18 53° WSW 23:08:58 10° NNW visible
09 Feb ? 10:03:33 10° NE 10:08:30 29° E 10:13:20 10° SSE visible
09 Feb ? 23:00:30 10° S 23:05:58 49° WSW 23:11:35 10° NNW visible
10 Feb ? 10:06:06 10° NE 10:11:10 30° E 10:16:07 10° SSE visible
10 Feb ? 23:03:12 10° S 23:08:37 46° WSW 23:14:12 10° NNW visible
11 Feb ? 10:08:40 10° NE 10:13:49 33° E 10:18:52 10° SSE visible
11 Feb ? 23:05:55 10° S 23:11:17 43° WSW 23:16:48 10° NNW visible
12 Feb ? 10:11:15 10° NE 10:16:29 35° E 10:21:36 10° SSE visible
12 Feb ? 23:08:38 10° S 23:13:57 40° W 23:19:24 10° NNW visible
